Regional Weather Roundup
Issued by NWS

Home | Current Version | Previous Version | Graphics & Text | Print | Product List | Glossary On
Versions: 1 2 3 4 5 6 7 8 9 10 11 12 13 14 15 16 17 18 19 20 21 22 23 24 25 26 27 28 29 30 31 32 33 34 35 36 37 38 39 40 41 42 43 44 45 46 47 48 49 50
000
ASUS43 KFSD 060002
RWRSD

WEATHER ROUNDUP FOR SOUTH DAKOTA
NATIONAL WEATHER SERVICE SIOUX FALLS SD
700 PM CDT THU MAY 05 2016

NOTE: "FAIR" INDICATES FEW OR NO CLOUDS BELOW 12,000 FEET WITH NO
SIGNIFICANT WEATHER AND/OR OBSTRUCTIONS TO VISIBILITY.


SDZ001>005-009-010-012>017-060100-
NORTHWEST AND NORTH CENTRAL SOUTH DAKOTA

CITY           SKY/WX    TMP DP  RH WIND       PRES   REMARKS
BUFFALO          N/A     84  39  20 S8        29.79F
FAITH            N/A     79  56  45 SW3       29.84S
MOBRIDGE       SUNNY     86  32  14 S9        29.78S
$$

SDZ012>016-024>037-041>051-057-063-072>074-060100-
SOUTHWEST AND SOUTH CENTRAL SOUTH DAKOTA

CITY           SKY/WX    TMP DP  RH WIND       PRES   REMARKS
RAPID CTY ARPT CLOUDY    79  51  37 E7        29.87F
PIERRE         SUNNY     82  51  34 SE14      29.80F
CUSTER         CLOUDY    74  29  19 SW8       30.00F
ELLSWORTH AFB  PTSUNNY   79  53  40 SE8       29.87F
PHILIP         CLOUDY    84  57  39 N5        29.80F
PINE RIDGE     CLOUDY    85  37  18 W6        29.88F
WINNER         LGT RAIN  83  48  29 S16       29.86F
$$

SDZ004>011-016>023-039-040-060100-
NORTHEAST SOUTH DAKOTA

CITY           SKY/WX    TMP DP  RH WIND       PRES   REMARKS
ABERDEEN       SUNNY     86  36  16 S17G25    29.83S
WATERTOWN      SUNNY     79  40  24 SW15      29.89F
BROOKINGS      SUNNY     77  46  33 S10       29.91F
SISSETON         N/A     84  39  20 SW13      29.82F
$$

SDZ017-020-022-023-036>040-048>070-060100-
SOUTHEAST SOUTH DAKOTA

CITY           SKY/WX    TMP DP  RH WIND       PRES   REMARKS
SIOUX FALLS    MOSUNNY   75  46  35 S8        29.93F
HURON          SUNNY     81  40  23 S13       29.86F
MITCHELL       SUNNY     81  42  25 S10       29.89F
YANKTON        SUNNY     81  39  22 S12       29.91S
$$

ABBREVIATIONS USED IN REMARKS
   TC - TEMPERATURE IN CELSIUS
  WCI - WIND CHILL INDEX
   HX - HEAT INDEX
  VSB - VISIBILITY





USA.gov is the U.S. government's official web portal to all federal, state and local government web resources and services.